Flag for Poland Weather past 2 weeks in Gorzów Wielkopolski, Poland

Now
38 °F

Passing clouds.


Feels Like: 33 °F
Forecast: 33 / 43 °F
Wind: 7 mph from West

Location: Gorzow Wlkp

Current Time: Apr 1, 2015 at 8:42:01 PM

Latest Report: Apr 1, 2015 at 8:00 PM


Visibility: 31 mi

Pressure: 29.70 "Hg

Humidity: 66%

Dew point: 28 °F

Location of Gorzów WielkopolskiLocation

Historic Weather in Gorzów Wielkopolski — Graph

°F

Gorzów Wielkopolski temperature yesterday

Maximum temperature yesterday: 49 °F (at 4:00 PM)
Minimum temperature yesterday: 32 °F (at 11:00 AM)
Average temperature yesterday: 40 °F

Past Weeks' High & Low Weather Summary

 TemperatureHumidityPressure
High62 °F (Mar 25, 3:00 PM)97% (Mar 26, 6:00 PM)30.49 "Hg (Mar 26, 6:00 PM)
Low25 °F (Mar 22, 6:00 AM)20% (Mar 18, 1:00 PM)29.00 "Hg (Mar 30, 3:00 AM)
Average43 °F67%29.89 "Hg
* Reported Mar 17 6:00 PM — Apr 1 7:00 PM, Gorzów Wielkopolski, Weather by CustomWeather, © 2015

Note: Actual official high and low records may vary slightly from our data, if they occured in-between our weather recording intervals... More about our weather records

Advertising

Gorzów Wielkopolski weather history for previous 24 hours

 ConditionsComfort  
Time TempWeatherWind HumidityBarometerVisibility
7:00 PM
Wed, Apr 1
40 °FScattered clouds.9 mph55%29.69 "Hg25 mi
6:00 PM39 °FOvercast.9 mph65%29.67 "Hg19 mi
5:00 PM43 °FPartly sunny.7 mph59%29.65 "Hg6 mi
4:00 PM42 °FSprinkles. Overcast.9 mph72%29.63 "Hg19 mi
3:00 PM40 °FOvercast.7 mph85%29.62 "Hg12 mi
2:00 PM45 °FPartly sunny.7 mph57%29.59 "Hg19 mi
1:00 PM43 °FOvercast.7 mph77%29.61 "Hg19 mi
12:00 PM42 °FOvercast.8 mph72%29.61 "Hg16 mi
11:00 AM40 °FPartly sunny.7 mph85%29.59 "Hg12 mi
10:00 AM39 °FSprinkles. Overcast.7 mph85%29.57 "Hg6 mi
9:00 AM37 °FLight rain. Low clouds.6 mph92%29.53 "Hg6 mi
8:00 AM36 °FLight rain. Low clouds.6 mph91%29.50 "Hg3 mi
7:00 AM37 °FLight rain. Low clouds.7 mph91%29.47 "Hg5 mi
6:00 AM36 °FLight rain. Low clouds.6 mph91%29.44 "Hg5 mi
5:00 AM36 °FLight rain. Low clouds.5 mph93%29.41 "Hg5 mi
4:00 AM36 °FLight rain. Low clouds.6 mph93%29.38 "Hg5 mi
3:00 AM36 °FLight rain. Low clouds.6 mph92%29.35 "Hg6 mi
2:00 AM37 °FRain. Low clouds.7 mph91%29.32 "Hg4 mi
1:00 AM38 °FLight rain. Overcast.9 mph88%29.29 "Hg19 mi
12:00 AM37 °FRain. Overcast.8 mph91%29.29 "Hg3 mi
10:00 PM
Tue, Mar 31
41 °FLight rain. Overcast.9 mph83%29.21 "Hg5 mi
9:00 PM42 °FSprinkles. Overcast.10 mph80%29.18 "Hg12 mi
8:00 PM43 °FSprinkles. Overcast.10 mph77%29.15 "Hg12 mi
Weather by CustomWeather, © 2015

See weather overviewHow to use our weather pages